Location: Nena
(32.3271°N, 96.8558°W)
Time: 02:26:09
(UTC+00:00)

N. Korean satellite - Visible Passes

Search period start: 01 February 2023 00:00
Search period end: 11 February 2023 00:00
Orbit: 407 x 443 km, 97.3° (Epoch: 31 January)

Date Brightness Start Highest point End Pass type
(mag) Time Alt. Az. Time Alt. Az. Time Alt. Az.
01 Feb 6.9 11:34:07 10° NNE 11:37:18 56° E 11:40:30 10° S visible
02 Feb 9.7 10:53:13 10° ENE 10:54:40 12° E 10:56:07 10° ESE visible
02 Feb 7.5 12:24:19 10° NNW 12:26:52 21° WNW 12:29:25 10° SW visible
03 Feb 6.4 11:41:09 10° NNE 11:44:24 75° ESE 11:47:40 10° S visible
04 Feb 9.4 10:59:37 10° ENE 11:01:40 16° E 11:03:43 10° SE visible
04 Feb 7.8 12:31:34 10° NNW 12:33:47 17° WNW 12:36:01 10° WSW visible
05 Feb 6.1 11:47:59 10° N 11:51:14 83° WNW 11:54:30 10° SSW visible
06 Feb 9.1 11:05:57 10° NE 11:08:24 19° E 11:10:50 10° SE visible
06 Feb 8.1 12:38:37 10° NW 12:40:26 14° WNW 12:42:16 10° WSW visible
07 Feb 6.2 11:54:33 10° N 11:57:47 64° WNW 12:01:02 10° SSW visible
08 Feb 8.7 11:12:08 10° NE 11:14:52 24° E 11:17:35 10° SSE visible
08 Feb 8.3 12:45:35 10° NW 12:46:49 12° WNW 12:48:02 10° W visible
09 Feb 6.4 12:00:53 10° N 12:04:04 50° WNW 12:07:16 10° SSW visible
10 Feb 8.3 11:18:07 10° NE 11:21:03 29° E 11:23:58 10° SSE visible
